Weather History for Albuquerque, NM

Change the Weather History Date:

Thursday, May 10, 2012

  Actual Average Record
Temperature  
Mean Temperature 63 °F 64 °F  
Max Temperature 79 °F 77 °F 93 °F (2000)
Min Temperature 46 °F 51 °F 34 °F (1912)
Degree Days  
Heating Degree Days 2 3  
Month to date heating degree days 14 39  
Since 1 July heating degree days 3767 4143  
Cooling Degree Days 0 2  
Month to date cooling degree days 18 13  
Year to date cooling degree days 55 20  
Growing Degree Days 12 (Base 50)    
Moisture  
Dew Point 38 °F    
Average Humidity 45    
Maximum Humidity 71    
Minimum Humidity 18    
Precipitation  
Precipitation 0.00 in 0.01 in 1.02 in (1932)
Month to date precipitation 0.00 0.16  
Year to date precipitation 1.67 2.20  
Snow  
Snow 0.00 in - - ()
Month to date snowfall 0.0  
Since 1 July snowfall 10.0  
Snow Depth 0.00 in    
Sea Level Pressure  
Sea Level Pressure 29.78 in    
Wind  
Wind Speed 5 mph (SE)    
Max Wind Speed 39 mph    
Max Gust Speed 46 mph    
Visibility 10 miles    
Events      
T = Trace of Precipitation, MM = Missing Value Source: NWS Daily Summary

Daily Weather History Graph

Daily Weather History Graph

Search for Another Location

Airport:

Trip Planner

Search our weather history database for the weather conditions in past years. The results will help you decide how hot, cold, wet, or windy it might be!

Date:

Astronomy

May. 10, 2012 Rise Set
Actual Time 6:06 AM MDT 7:59 PM MDT
Civil Twilight 5:38 AM MDT 8:27 PM MDT
Nautical Twilight 5:05 AM MDT 9:01 PM MDT
Astronomical Twilight 4:29 AM MDT 9:37 PM MDT
Moon No Moon Rise 10:34 AM MDT (5/10)
Length of Visible Light 14h 48m
Length of Day
13h 53m
Waning Gibbous, 72% of the Moon is Illuminated
May 10
Waning Gibbous
May 12
Last Quarter
May 20
New
May 28
First Quarter
Jun 4
Full

Hourly Weather History & Observations

Time (MDT) Temp. Windchill Dew Point Humidity Pressure Visibility Wind Dir Wind Speed Gust Speed Precip Events Conditions
12:52 AM 55.0 °F - 39.9 °F 57% 29.90 in 10.0 mi East 3.5 mph - N/A   Partly Cloudy
1:52 AM 55.9 °F - 39.9 °F 55% 29.87 in 10.0 mi Calm Calm - N/A   Clear
2:52 AM 54.0 °F - 42.1 °F 64% 29.84 in 10.0 mi North 4.6 mph - N/A   Clear
3:52 AM 54.0 °F - 43.0 °F 66% 29.84 in 10.0 mi Calm Calm - N/A   Clear
4:52 AM 52.0 °F - 42.1 °F 69% 29.85 in 10.0 mi Calm Calm - N/A   Partly Cloudy
5:52 AM 48.0 °F - 37.0 °F 66% 29.86 in 10.0 mi ESE 3.5 mph - N/A   Scattered Clouds
6:52 AM 46.0 °F 41.9 °F 36.0 °F 68% 29.89 in 10.0 mi SE 8.1 mph - N/A   Scattered Clouds
7:52 AM 55.0 °F - 39.0 °F 55% 29.87 in 10.0 mi Calm Calm - N/A   Scattered Clouds
8:52 AM 57.9 °F - 42.1 °F 56% 29.86 in 10.0 mi Calm Calm - N/A   Mostly Cloudy
9:52 AM 60.1 °F - 41.0 °F 49% 29.86 in 10.0 mi Calm Calm - N/A   Mostly Cloudy
10:52 AM 63.0 °F - 41.0 °F 45% 29.84 in 10.0 mi SW 5.8 mph - N/A   Mostly Cloudy
11:52 AM 66.9 °F - 39.0 °F 36% 29.81 in 10.0 mi Variable 3.5 mph - N/A   Mostly Cloudy
12:52 PM 70.0 °F - 35.1 °F 28% 29.76 in 10.0 mi Calm Calm - N/A   Mostly Cloudy
1:52 PM 73.9 °F - 33.1 °F 22% 29.72 in 10.0 mi Calm Calm - N/A   Mostly Cloudy
2:52 PM 73.0 °F - 30.0 °F 20% 29.69 in 10.0 mi Calm Calm - N/A   Mostly Cloudy
3:52 PM 75.0 °F - 30.9 °F 20% 29.65 in 10.0 mi Variable 3.5 mph - N/A   Mostly Cloudy
4:52 PM 77.0 °F - 32.0 °F 19% 29.63 in 10.0 mi Variable 4.6 mph - N/A   Mostly Cloudy
5:52 PM 77.0 °F - 32.0 °F 19% 29.63 in 10.0 mi Variable 3.5 mph - N/A   Mostly Cloudy
6:52 PM 77.0 °F - 30.9 °F 19% 29.63 in 10.0 mi Calm Calm - N/A   Mostly Cloudy
7:52 PM 72.0 °F - 36.0 °F 27% 29.64 in 10.0 mi ESE 23.0 mph 29.9 mph N/A   Mostly Cloudy
8:52 PM 68.0 °F - 37.0 °F 32% 29.69 in 10.0 mi ESE 16.1 mph - N/A   Mostly Cloudy
9:37 PM 66.2 °F - 37.4 °F 35% 29.93 in 10.0 mi ESE 9.2 mph 19.6 mph N/A   Mostly Cloudy
9:52 PM 66.9 °F - 39.0 °F 36% 29.74 in 10.0 mi SE 9.2 mph - N/A   Mostly Cloudy
10:52 PM 63.0 °F - 41.0 °F 45% 29.77 in 10.0 mi SSE 6.9 mph - N/A   Mostly Cloudy
11:52 PM 62.1 °F - 45.0 °F 53% 29.76 in 10.0 mi SE 4.6 mph - N/A   Mostly Cloudy